Location: Central Coast
(33.3208°S, 151.2336°E)
Time: 04:27:55
(UTC+10:00)

Vanguard 1 - All Passes

Search period start: 21 July 2018 00:00
Search period end: 31 July 2018 00:00
Orbit: 650 x 3833 km, 34.2° (Epoch: 19 July)

Date Brightness Start Highest point End Pass type
(mag) Time Alt. Az. Time Alt. Az. Time Alt. Az.
21 Jul - 07:47:16 10° NNW 08:00:00 46° NE 08:20:02 10° ESE daylight
21 Jul - 10:06:58 10° WNW 10:24:35 82° NNE 10:48:41 10° ESE daylight
21 Jul - 12:30:47 10° W 12:53:06 88° S 13:15:05 10° E daylight
21 Jul - 14:57:16 10° WSW 15:20:57 71° NNW 15:38:09 10° NE daylight
21 Jul - 17:26:48 10° WSW 17:44:15 32° NW 17:56:14 10° N visible
22 Jul - 05:53:10 10° NNE 06:00:05 17° ENE 06:09:07 10° E visible
22 Jul - 08:07:26 10° NW 08:20:44 56° NE 08:42:08 10° ESE daylight
22 Jul - 10:28:06 10° WNW 10:46:17 88° NNE 11:10:26 10° E daylight
22 Jul - 12:52:21 10° W 13:15:03 90° NNW 13:36:33 10° ENE daylight
22 Jul - 15:19:03 10° WSW 15:42:10 62° NNW 15:58:48 10° NE daylight
22 Jul - 17:50:01 10° W 18:04:34 24° NW 18:15:14 10° N visible
23 Jul - 06:11:27 10° N 06:20:14 24° NE 06:33:09 10° E visible
23 Jul - 08:27:55 10° NW 08:41:42 66° NNE 09:04:05 10° ESE daylight
23 Jul - 10:49:22 10° W 11:08:07 89° S 11:32:13 10° E daylight
23 Jul - 13:13:56 10° W 13:36:54 85° NNW 13:57:53 10° ENE daylight
23 Jul - 15:40:56 10° WSW 16:03:10 53° NW 16:19:11 10° NNE daylight
23 Jul - 18:14:31 10° W 18:24:49 16° NW 18:33:04 10° NNW visible
24 Jul - 06:30:42 10° NNW 06:40:30 33° NE 06:56:05 10° ESE daylight
24 Jul - 08:48:37 10° WNW 09:02:54 75° NNE 09:25:58 10° ESE daylight
24 Jul - 11:10:43 10° W 11:30:03 87° S 11:53:59 10° E daylight
24 Jul - 13:35:30 10° WSW 13:58:36 79° NNW 14:19:04 10° ENE daylight
24 Jul - 16:03:01 10° WSW 16:23:57 43° NW 16:39:15 10° NNE daylight
25 Jul - 06:50:30 10° NNW 07:00:55 43° NE 07:18:29 10° ESE daylight
25 Jul - 09:09:31 10° WNW 09:24:18 83° NNE 09:47:51 10° ESE daylight
25 Jul - 11:32:06 10° W 11:52:00 88° S 12:15:41 10° E daylight
25 Jul - 13:57:05 10° WSW 14:20:08 71° NNW 14:40:01 10° NE daylight
25 Jul - 16:25:28 10° WSW 16:44:33 34° NW 16:58:53 10° NNE daylight
26 Jul - 04:57:30 10° NNE 05:01:52 13° ENE 05:07:16 10° E visible
26 Jul - 07:10:40 10° NW 07:21:32 54° NE 07:40:37 10° ESE daylight
26 Jul - 09:30:33 10° WNW 09:45:53 88° NNE 10:09:45 10° E daylight
26 Jul - 11:53:30 10° W 12:13:55 89° NNW 12:37:18 10° ENE daylight
26 Jul - 14:18:44 10° WSW 14:41:27 63° NNW 15:00:44 10° NE daylight
26 Jul - 16:48:31 10° W 17:05:01 26° NW 17:17:56 10° N daylight
27 Jul - 05:15:15 10° N 05:21:59 21° NE 05:31:42 10° E visible
27 Jul - 07:31:07 10° NW 07:42:24 65° NNE 08:02:36 10° ESE daylight
27 Jul - 09:51:42 10° W 10:07:37 88° S 10:31:40 10° E daylight
27 Jul - 12:14:55 10° W 12:35:45 85° NNW 12:58:47 10° ENE daylight
27 Jul - 14:40:29 10° WSW 15:02:34 54° NW 15:21:09 10° NE daylight
27 Jul - 17:12:45 10° W 17:25:26 18° NW 17:35:57 10° NNW visible
28 Jul - 05:34:24 10° N 05:42:11 29° NE 05:54:40 10° E visible
28 Jul - 07:51:47 10° WNW 08:03:29 75° NNE 08:24:32 10° ESE daylight
28 Jul - 10:12:55 10° W 10:29:25 87° S 10:53:36 10° E daylight
28 Jul - 12:36:19 10° WSW 12:57:28 79° NNW 13:20:04 10° ENE daylight
28 Jul - 15:02:26 10° WSW 15:23:30 44° NW 15:41:13 10° NNE daylight
28 Jul - 17:40:16 10° WNW 17:45:51 12° WNW 17:50:59 10° NW visible
29 Jul - 05:54:09 10° NNW 06:02:33 40° NE 06:17:04 10° ESE visible
29 Jul - 08:12:37 10° WNW 08:24:46 83° NNE 08:46:29 10° ESE daylight
29 Jul - 10:34:10 10° W 10:51:15 88° S 11:15:28 10° E daylight
29 Jul - 12:57:45 10° WSW 13:19:02 71° NNW 13:41:07 10° NE daylight
29 Jul - 15:24:45 10° W 15:44:17 36° NW 16:00:53 10° NNE daylight
30 Jul - 06:14:18 10° NW 06:23:07 51° NE 06:39:10 10° ESE visible
30 Jul - 08:33:34 10° WNW 08:46:14 89° NNE 09:08:28 10° E daylight
30 Jul - 10:55:25 10° W 11:13:04 89° NNW 11:37:14 10° ENE daylight
30 Jul - 13:19:15 10° WSW 13:40:25 62° NNW 14:01:53 10° NE daylight
30 Jul - 15:47:40 10° W 16:04:58 27° NW 16:19:56 10° N daylight
